Theta_e
327 328 329 329 329 329 330 330 330 330 330 329 329 328 328 328 328 327 327 326 324 323 325 327 328 328 328 328 328 327 327 325 325 325 325 324 319 313 310 307 311 320 324 325 322 311 304 304 303 302 302 301 301 300 300 301 302 304 304 305 307 309 309 309 309 310 312 313 314 313 313 313 313 313
327 328 328 329 329 329 329 330 330 330 330 329 328 328 328 328 328 327 327 326 324 323 325 327 327 328 328 328 328 327 327 326 326 326 326 325 323 318 310 305 310 320 325 322 315 306 304 304 302 302 302 301 301 300 301 302 303 304 304 306 308 309 310 310 311 312 313 313 313 313 313 313 313 313
326 327 327 328 328 328 328 329 330 330 330 329 328 327 327 328 328 327 327 327 325 325 326 326 327 327 328 328 328 327 327 326 326 326 326 325 325 323 315 306 307 318 324 318 307 304 304 303 302 302 301 301 301 300 301 302 303 304 305 307 309 310 310 311 312 312 313 313 313 312 312 312 312 312
326 327 327 328 328 328 328 328 329 330 329 328 327 326 327 327 328 328 328 327 326 326 326 326 326 327 327 328 328 327 327 327 326 326 326 325 324 324 318 308 305 312 316 311 305 304 304 302 302 302 301 301 301 301 301 302 303 304 306 308 310 311 311 311 312 312 313 313 312 312 312 312 312 312
326 327 327 328 328 329 329 329 330 330 328 328 327 326 326 327 327 327 327 327 327 327 326 326 326 327 328 328 328 327 327 327 327 326 326 325 324 323 320 310 304 306 308 306 305 305 303 302 302 301 301 302 301 301 302 302 303 304 307 309 311 311 312 312 312 312 312 312 312 312 312 312 312 312
326 326 327 328 328 329 329 329 330 330 328 327 327 327 327 327 327 327 327 327 327 327 327 327 327 327 328 328 327 327 327 327 327 327 326 325 323 323 322 314 306 305 305 304 305 305 303 302 302 301 302 301 301 302 302 302 303 304 307 310 311 312 312 312 312 312 312 312 312 312 311 311 312 312
326 326 327 328 328 328 328 329 330 330 329 328 327 327 327 327 327 327 327 327 327 327 326 327 327 327 328 328 327 327 327 327 327 327 326 325 323 323 323 317 309 305 306 305 305 305 303 302 302 301 301 301 301 302 302 302 302 304 307 310 311 312 312 312 312 312 312 312 312 311 311 311 312 312
326 327 327 327 328 328 328 329 329 329 328 328 328 327 327 326 326 326 327 327 327 327 327 327 327 327 327 327 327 327 327 327 327 327 326 325 324 323 322 320 312 306 305 305 305 305 303 302 302 302 302 301 301 302 302 302 302 303 306 308 311 312 311 312 312 312 312 311 311 311 311 311 311 311
326 327 327 327 327 328 328 328 329 329 329 328 327 326 326 325 324 325 326 327 327 327 327 328 328 327 327 328 328 327 328 327 326 326 325 324 324 323 322 320 314 307 305 305 305 305 303 302 302 302 302 302 301 301 302 302 302 302 304 307 311 312 312 312 312 311 311 311 311 311 311 311 311 311
326 326 327 327 327 327 328 328 328 328 328 328 327 326 325 325 325 324 325 327 328 327 328 328 328 328 328 327 328 327 327 327 327 325 324 323 323 322 321 319 314 307 305 305 305 304 303 302 302 302 302 302 301 301 302 301 302 302 303 306 310 312 312 312 311 311 311 311 311 311 311 311 311 310
326 326 326 327 327 328 328 328 328 328 327 327 327 327 326 326 326 325 325 327 327 327 328 328 328 327 327 327 327 327 327 327 327 325 324 323 323 321 320 318 313 308 306 305 305 305 303 302 302 302 302 302 302 302 301 301 301 301 302 304 308 312 312 312 312 311 311 311 311 311 311 311 310 309
326 326 325 325 326 326 327 327 327 327 327 327 327 327 327 327 328 327 327 327 327 327 327 328 327 327 327 327 327 327 327 327 326 324 324 323 322 321 319 316 311 308 307 306 305 305 303 302 302 301 302 302 302 302 302 301 301 301 301 303 306 310 312 312 312 311 311 311 311 311 310 310 309 307
326 326 325 325 325 325 326 326 326 326 326 326 326 326 327 328 328 328 327 327 327 327 327 327 327 327 327 327 327 327 327 327 326 324 323 323 322 321 320 316 312 310 309 307 306 305 304 302 302 301 302 302 302 302 302 302 302 302 301 301 304 308 312 312 312 311 311 311 311 310 309 308 307 307
324 325 325 325 325 325 325 325 326 326 326 325 326 326 327 328 328 327 327 327 326 327 327 327 327 327 327 327 327 327 327 326 325 324 323 323 322 321 320 317 313 312 311 310 308 306 305 303 302 302 302 302 303 303 303 303 302 302 302 302 302 306 310 312 312 311 311 311 311 310 308 307 306 307
322 323 324 324 325 324 324 324 325 326 326 326 326 326 327 327 327 327 327 326 325 325 326 327 327 327 327 327 327 327 327 326 325 324 324 323 322 321 320 318 315 313 312 313 313 311 308 305 303 302 302 302 303 304 304 304 303 303 303 303 303 305 309 311 311 311 311 311 310 309 307 306 307 310
321 322 323 324 324 324 323 322 323 324 324 325 325 326 327 327 326 326 326 326 324 323 324 325 326 327 328 327 327 327 326 325 325 324 324 323 321 321 321 319 317 314 312 314 317 315 311 307 305 303 302 302 304 305 305 305 304 304 303 303 304 306 309 311 311 311 311 310 309 307 305 307 311 313
320 321 322 323 324 324 324 323 322 322 323 323 324 326 326 326 326 326 327 327 325 324 325 325 325 326 327 328 327 326 326 325 325 324 323 322 321 321 321 320 318 315 314 315 316 314 311 308 305 303 302 302 303 305 306 305 305 305 304 304 304 306 309 311 311 311 310 309 308 306 307 310 313 312
316 318 320 321 322 323 323 323 323 322 322 322 323 324 325 326 325 325 326 327 326 326 326 325 324 324 326 327 326 325 326 326 325 324 323 323 322 322 321 320 318 316 315 314 312 311 310 308 307 305 304 303 303 304 304 305 306 306 305 305 305 305 307 308 309 309 309 307 306 306 310 312 311 307
312 313 315 317 319 320 321 323 323 322 322 322 322 322 323 324 325 324 325 326 326 326 325 324 323 323 324 326 326 326 326 326 325 325 324 323 323 321 320 319 318 317 316 314 312 310 310 310 310 310 309 307 306 305 304 304 305 305 306 305 305 305 306 307 307 307 307 306 307 309 311 310 305 302
308 310 311 313 315 316 318 320 322 322 322 322 322 321 321 323 325 325 326 327 326 326 326 325 325 325 325 326 326 326 326 326 325 325 323 321 320 319 318 318 318 317 316 316 314 311 310 311 311 311 311 311 309 308 306 305 304 304 305 305 305 305 306 306 306 306 306 306 308 310 309 305 301 299
305 306 307 309 311 313 314 317 320 322 323 323 323 323 321 322 324 324 324 325 326 325 325 325 326 326 326 326 326 326 326 325 325 324 322 320 319 319 318 318 318 317 316 315 315 313 312 311 311 312 311 311 310 309 308 307 305 304 303 304 304 305 305 305 306 306 307 308 308 307 305 302 300 300
303 304 305 306 307 310 311 313 316 319 321 323 324 324 323 323 323 323 324 325 325 325 325 325 326 327 326 326 326 326 325 325 324 324 323 322 321 320 320 319 318 317 315 314 314 314 313 312 311 312 311 311 310 309 309 307 306 305 304 303 303 304 305 305 306 307 307 307 306 304 303 302 301 300
302 302 303 304 305 306 308 310 312 315 318 321 323 324 324 323 323 323 324 324 325 325 326 326 326 326 326 326 326 326 326 325 324 324 324 323 322 321 321 320 319 317 315 313 312 313 313 312 312 312 311 310 310 310 309 308 308 307 306 305 305 305 306 306 306 307 307 306 304 303 302 301 300 300
301 301 301 302 303 304 305 307 310 311 314 317 321 323 323 324 323 323 324 324 324 324 325 326 326 326 325 325 325 325 325 325 324 323 323 323 322 322 322 321 319 318 317 315 312 312 312 312 312 312 312 311 311 310 309 309 309 308 307 306 306 305 306 306 306 306 305 304 303 302 301 301 301 300
299 300 300 300 301 302 303 305 307 309 311 314 317 321 323 323 323 323 323 323 323 323 323 324 324 324 324 325 325 324 324 324 324 323 322 321 321 321 321 320 319 319 319 316 313 312 312 312 312 312 312 312 312 311 310 309 308 308 307 306 306 306 306 306 306 305 304 303 303 302 302 302 301 301
298 299 299 299 300 300 301 303 304 306 309 311 314 318 321 323 323 322 323 323 323 323 323 323 323 323 323 323 324 324 324 323 323 323 321 320 319 319 319 318 318 318 318 316 314 312 312 312 312 312 312 312 312 311 310 309 307 307 306 306 307 307 306 306 305 304 303 303 303 302 302 302 302 301
297 298 298 299 299 300 300 302 303 305 307 309 312 314 318 321 322 321 321 322 322 322 321 321 321 322 323 322 322 323 324 322 321 322 321 319 318 318 317 317 317 317 317 316 315 314 313 313 312 312 312 313 312 311 310 309 307 307 306 306 306 306 306 305 305 304 303 303 302 302 302 302 301 301
296 297 298 298 299 299 300 301 302 304 305 307 309 311 313 317 320 319 319 320 320 321 320 319 319 320 321 321 321 322 323 322 321 321 321 319 318 319 318 317 317 317 317 317 316 316 315 314 313 313 313 313 313 311 310 309 308 307 306 305 305 305 305 305 304 304 303 303 302 302 302 301 301 301
296 296 297 298 298 299 300 300 301 303 304 305 307 308 310 313 315 316 316 317 318 318 318 318 318 318 319 319 320 320 321 321 320 320 321 319 319 319 319 319 318 317 317 317 317 317 316 315 314 314 313 313 314 313 312 310 308 306 306 305 304 304 304 304 304 303 303 302 302 301 301 301 300 300
296 296 296 297 297 298 299 300 300 301 302 303 305 306 307 308 309 310 311 313 314 315 315 316 316 316 315 316 317 318 319 319 318 319 319 319 318 318 319 319 318 318 317 317 317 317 316 315 314 314 313 313 313 312 311 310 307 306 305 305 304 303 303 303 303 303 302 302 301 301 300 300 300 299
296 296 296 297 297 297 298 299 300 300 301 302 303 304 305 305 305 305 305 307 308 310 311 312 313 313 312 312 312 313 315 315 316 316 316 316 317 317 318 317 316 316 316 316 316 316 316 314 313 313 313 312 311 310 309 308 307 306 305 304 304 303 302 302 302 302 301 301 300 300 300 299 299 298
296 296 296 297 297 297 297 298 298 299 299 300 300 301 302 302 303 303 303 304 304 304 305 307 308 309 308 308 309 310 311 311 312 312 313 314 314 314 315 315 314 314 313 312 311 312 311 311 310 310 310 311 310 309 307 307 306 305 304 303 303 302 302 302 301 301 300 300 299 299 298 298 297 296
295 296 296 296 296 296 296 297 297 297 298 298 299 299 300 300 301 302 302 303 302 302 302 303 304 304 304 305 305 307 308 308 309 309 310 311 311 311 313 313 311 310 310 309 308 308 308 308 308 307 308 308 308 307 306 305 304 303 303 302 301 301 301 301 301 300 299 299 298 298 297 296 295 295
294 295 295 295 295 295 295 295 295 296 296 297 297 298 298 299 300 300 300 300 300 301 301 302 302 302 302 302 303 304 305 305 306 307 307 308 308 309 310 309 308 307 308 307 306 305 305 306 305 305 305 306 306 305 305 304 303 302 301 301 301 301 300 300 300 299 299 298 298 297 296 295 294 294
293 293 294 294 294 294 294 294 294 294 295 295 296 296 297 297 298 299 299 299 299 300 301 301 301 300 300 300 300 301 301 301 302 303 304 305 305 306 305 305 304 304 304 303 302 302 302 302 302 303 304 304 304 303 303 303 302 301 300 300 301 301 300 299 299 299 298 297 297 296 295 295 294 294
293 293 293 293 293 293 293 293 293 293 294 294 294 295 295 296 296 297 297 298 299 299 299 300 300 300 299 299 299 299 299 299 299 299 300 301 302 302 301 301 301 301 301 301 301 300 301 301 301 302 302 302 302 301 300 300 301 301 301 300 300 300 300 299 298 298 297 296 295 295 295 294 294 293
293 293 292 292 292 292 292 293 293 293 293 294 294 294 294 295 295 295 296 297 297 298 298 298 299 299 299 299 299 299 299 299 299 299 299 300 300 300 300 300 300 300 300 300 299 300 300 300 301 301 301 301 300 299 299 299 299 299 300 299 299 299 299 298 298 297 296 295 295 294 294 294 294 293
293 293 292 292 292 292 292 292 293 293 293 293 294 294 294 294 294 295 295 296 296 297 297 297 297 298 298 298 299 299 299 299 299 299 299 299 299 299 299 299 299 299 299 299 299 299 299 299 299 300 300 300 299 298 298 298 298 298 298 298 298 298 298 297 297 297 296 295 294 294 294 294 294 294
293 293 293 293 293 292 292 292 292 292 293 293 293 293 294 294 294 294 294 295 295 295 296 296 296 296 297 297 298 298 298 298 298 298 298 298 298 298 298 298 298 298 298 298 298 298 298 298 297 298 298 298 299 299 298 298 297 297 296 297 297 297 297 297 297 296 296 295 295 294 294 294 294 294
292 293 293 293 293 293 292 292 292 292 292 292 293 293 293 293 293 293 294 294 294 294 295 295 296 296 296 296 297 297 297 297 298 297 297 298 298 298 298 297 298 298 298 298 297 297 298 298 298 298 298 298 297 298 298 298 297 296 296 296 296 296 296 296 296 296 296 296 295 294 294 294 294 294
293 293 293 293 293 293 293 293 292 292 292 292 292 292 292 292 292 292 293 293 293 294 294 294 295 295 296 296 296 297 297 297 297 297 297 297 297 297 297 297 297 297 297 297 297 297 297 298 298 298 298 298 297 297 296 296 295 295 295 296 296 296 296 296 296 296 296 295 295 295 295 295 295 295
293 293 293 293 293 293 293 293 292 292 292 292 292 292 292 292 292 292 292 292 293 293 293 294 294 294 295 295 296 296 296 296 296 296 297 297 297 297 297 297 297 297 297 297 296 296 297 297 297 298 297 297 296 295 295 294 294 294 295 295 296 296 296 296 296 295 295 295 295 295 295 295 295 295
292 292 293 293 293 293 293 293 292 292 292 292 292 292 292 292 292 292 292 292 292 292 293 293 293 294 294 294 295 295 294 294 294 295 295 296 296 296 296 296 296 296 296 296 296 296 296 296 297 296 296 295 295 294 294 293 293 294 294 295 295 295 295 295 295 295 295 295 295 295 295 294 294 294
292 292 292 293 293 293 293 292 292 292 292 292 292 291 291 291 292 292 292 292 293 292 292 292 293 293 293 294 294 294 294 294 294 294 295 295 295 295 295 295 295 295 295 295 295 296 296 296 296 295 295 295 295 294 294 294 294 294 294 294 294 294 294 294 294 295 295 294 294 294 294 293 293 293
292 292 292 293 293 293 292 292 292 292 292 292 292 292 292 292 292 292 292 292 292 292 292 292 292 292 293 293 293 293 294 294 294 294 294 295 295 295 295 295 295 295 295 295 296 296 296 296 296 295 295 295 295 295 295 294 295 295 295 295 295 295 294 294 294 294 293 293 293 293 293 293 292 292
Wind_Speed
25 25 27 29 31 30 28 29 30 29 27 26 26 27 28 29 29 26 25 27 29 28 27 27 28 30 31 30 29 28 26 24 23 23 21 18 17 20 22 23 23 25 25 26 26 24 24 23 20 19 21 22 23 24 25 26 25 24 23 22 21 21 21 21 21 21 20 19 17 16 14 13 12 11
23 23 24 27 29 27 24 25 26 27 27 26 27 26 26 28 30 29 27 28 28 28 28 27 28 30 32 32 31 30 28 26 25 24 23 21 19 18 20 22 23 25 26 26 25 24 24 22 20 20 22 23 24 25 26 26 25 24 23 22 21 21 22 22 21 21 20 19 17 15 13 12 11 10
22 22 22 24 26 24 21 21 24 26 26 25 25 24 24 27 30 31 30 29 28 28 26 26 28 30 32 34 33 32 30 28 27 26 25 24 21 17 18 21 23 25 26 26 25 25 24 22 21 22 24 24 24 25 26 26 25 24 23 22 21 21 22 22 21 20 19 18 16 14 13 12 11 10
20 21 22 23 23 22 21 21 23 24 23 24 24 23 23 25 26 29 32 32 30 28 26 25 26 29 32 35 35 35 32 30 29 28 27 26 23 20 18 20 22 24 26 26 25 25 24 22 22 23 24 24 25 26 26 26 25 24 23 22 21 22 22 22 22 21 19 18 16 14 13 12 11 10
18 19 20 21 22 21 21 22 22 22 22 23 24 23 24 25 25 28 31 31 31 29 27 26 25 28 32 35 36 36 35 33 32 31 30 28 25 22 20 20 23 24 25 26 25 25 25 23 23 24 24 25 26 26 26 26 26 25 24 23 23 22 22 22 22 21 20 18 16 15 13 12 12 11
16 18 19 20 20 21 21 22 21 22 23 24 25 24 25 26 27 28 29 31 31 31 30 28 26 28 33 35 37 38 37 36 35 34 32 29 27 25 22 21 23 24 25 26 26 26 25 24 24 25 25 26 26 26 26 26 26 26 25 24 24 23 22 22 22 21 20 18 17 15 14 13 12 12
15 17 17 17 18 19 20 21 22 23 24 24 25 25 25 27 28 29 29 31 32 32 31 30 29 28 31 34 36 38 38 38 37 35 34 31 29 27 24 22 24 25 26 26 26 26 26 25 25 25 26 26 27 27 26 26 26 27 26 25 24 24 23 22 22 21 20 18 17 16 15 14 13 13
14 14 14 14 15 17 19 20 22 24 24 25 26 25 25 26 28 29 30 31 32 33 32 32 31 30 30 32 35 37 38 40 38 35 35 33 30 29 26 24 24 25 25 26 27 27 27 26 26 26 26 26 27 27 27 27 27 27 27 26 25 25 24 23 22 21 20 18 17 16 15 15 14 14
12 13 13 13 13 15 16 18 20 22 23 25 26 26 26 27 28 29 30 31 33 34 34 34 33 31 30 31 34 37 39 40 38 36 35 33 30 29 28 26 25 25 25 26 27 28 27 27 26 27 27 27 27 27 27 27 27 27 27 26 26 25 25 24 23 21 20 19 18 17 16 16 16 16
11 12 13 13 13 13 14 15 16 18 20 23 25 26 27 28 29 30 30 31 33 35 35 35 35 33 32 32 34 36 37 39 39 38 36 34 32 31 29 28 27 26 25 27 28 29 29 28 27 28 27 27 27 27 27 27 27 28 27 27 27 27 26 25 23 22 21 19 18 18 17 17 17 17
11 10 11 12 12 12 12 13 14 16 18 20 23 26 28 28 28 29 30 31 32 34 35 36 36 34 31 32 33 34 35 38 40 41 39 36 34 33 31 29 28 27 27 28 29 29 29 28 28 28 28 28 27 27 27 27 28 27 28 27 28 28 27 26 24 23 21 20 20 19 19 19 19 19
10 10 10 11 11 11 11 12 13 14 16 18 21 24 26 27 27 28 29 30 30 31 33 35 35 32 30 32 33 34 36 39 41 41 40 37 36 35 32 29 28 28 28 30 30 30 30 30 29 29 29 29 28 28 28 27 27 27 27 28 28 29 28 27 25 23 22 22 21 20 20 20 20 20
9 8 9 9 11 11 11 11 12 13 15 17 19 21 21 23 24 25 27 29 29 29 31 32 33 32 32 33 36 37 39 41 42 40 38 37 36 35 32 29 28 28 28 30 32 31 31 31 31 31 31 30 29 29 29 28 27 27 27 28 29 29 29 28 26 24 23 23 22 21 21 21 20 20
10 9 8 8 9 10 10 10 11 13 15 17 19 20 20 20 21 22 24 25 27 28 30 32 34 35 35 35 37 39 39 40 40 40 40 39 37 34 33 31 30 30 29 30 31 31 31 31 32 32 32 31 30 30 29 28 27 27 27 28 29 29 29 28 26 25 24 23 22 22 21 21 21 21
13 11 10 10 9 9 10 10 11 12 15 17 18 20 20 20 20 21 22 23 24 27 30 33 36 38 38 37 37 38 38 40 41 42 43 41 37 35 36 35 34 33 32 30 30 30 31 32 32 33 33 32 32 30 29 28 27 27 28 28 28 29 29 28 27 26 25 24 23 22 22 21 21 20
13 13 12 12 11 10 10 12 12 13 14 16 18 20 21 22 22 22 23 23 23 25 27 31 35 38 39 38 37 37 39 41 42 43 44 41 37 35 37 37 35 33 31 31 30 29 31 32 33 33 33 33 32 30 29 28 28 28 28 28 28 29 29 28 27 26 26 24 23 23 22 21 20 20
12 13 14 14 13 11 11 13 14 14 15 15 16 18 20 21 22 23 24 24 24 24 25 28 32 35 37 39 38 38 39 41 43 45 44 41 39 39 39 37 35 31 30 30 31 30 30 32 33 33 32 32 32 30 29 29 28 27 27 28 28 28 28 28 27 27 26 25 24 23 22 21 20 20
12 12 14 15 15 13 12 13 14 15 15 16 15 15 17 19 21 24 25 25 24 24 25 27 29 31 35 38 38 37 39 42 44 45 45 44 43 42 40 35 32 31 30 29 30 30 30 30 31 31 30 30 30 30 30 29 28 28 28 27 27 27 27 28 28 28 26 25 24 23 21 21 21 20
14 14 14 14 16 15 13 13 14 15 15 16 16 16 16 18 20 23 24 24 24 25 25 27 28 29 33 37 39 38 38 40 42 42 44 45 44 43 40 34 31 33 32 30 30 29 29 30 30 29 28 28 29 29 30 30 30 29 28 27 27 27 27 28 28 27 26 25 24 22 21 21 20 18
18 17 16 15 16 16 14 13 14 15 16 17 17 17 17 18 19 21 23 23 24 24 25 27 28 27 29 34 39 39 38 38 40 43 44 42 40 41 39 34 32 35 35 33 32 29 27 29 31 30 29 29 29 29 30 31 31 31 30 28 27 27 28 28 28 27 26 25 23 22 21 19 17 14
22 20 19 18 17 16 16 14 14 16 17 17 17 18 18 18 18 20 22 23 23 24 24 26 27 26 27 30 35 38 39 38 38 42 44 41 37 39 40 37 36 37 37 36 36 33 30 29 31 33 33 31 30 30 30 31 32 31 31 29 29 29 29 29 28 26 25 24 23 21 19 16 14 11
24 24 23 21 19 17 17 16 14 15 16 16 17 19 20 20 19 20 21 23 24 24 24 25 26 26 26 27 30 35 38 37 36 38 42 42 40 39 39 38 36 36 37 37 38 38 36 33 32 33 34 33 32 32 32 31 30 30 30 29 29 29 29 28 27 26 24 23 20 18 15 13 11 9
25 25 26 25 24 22 19 17 16 15 15 16 17 19 21 22 21 21 21 21 23 24 26 28 29 28 28 28 31 34 35 35 35 35 38 42 42 41 40 39 38 38 39 39 39 40 40 38 35 34 34 33 32 30 29 27 26 27 28 28 27 27 28 27 26 24 22 20 17 14 12 11 9 8
29 27 28 28 29 28 24 20 17 16 14 15 17 18 19 21 23 22 21 20 21 23 26 29 29 29 28 29 31 33 32 33 35 34 34 38 40 42 42 41 40 40 39 38 41 43 42 41 39 36 34 33 30 27 24 23 25 26 28 30 30 29 27 26 24 21 19 17 14 11 10 9 9 9
32 31 31 31 31 32 31 27 22 19 16 14 16 17 18 21 23 22 20 20 21 23 24 25 27 28 27 28 30 30 28 30 34 34 34 36 37 39 41 41 40 41 40 37 40 44 44 43 42 39 36 33 31 29 27 26 27 28 29 30 30 28 26 24 22 20 17 14 11 10 8 8 8 7
34 32 31 31 31 32 32 31 27 24 20 16 15 16 18 21 22 21 20 20 20 22 23 22 24 27 27 27 29 28 28 31 34 34 35 37 37 36 36 36 37 41 41 39 39 42 45 45 44 42 40 35 32 32 33 32 32 31 30 28 26 25 24 22 20 17 14 12 11 9 7 6 6 6
34 32 30 28 27 28 29 30 29 26 23 19 15 14 15 18 20 19 19 18 18 20 22 21 22 25 27 28 28 28 29 31 32 33 33 33 34 36 37 36 36 37 38 39 41 42 43 45 45 45 44 40 37 37 37 37 36 33 30 27 24 23 22 20 18 16 13 11 10 8 7 6 7 8
32 31 29 26 24 23 24 26 26 25 24 22 18 14 11 13 15 14 14 16 17 19 22 21 20 22 25 27 27 28 29 29 27 28 30 30 33 36 38 39 39 37 36 37 38 40 41 44 45 45 44 42 40 40 41 41 39 36 33 30 27 24 23 22 18 16 14 13 11 10 9 8 7 8
30 29 27 25 23 21 21 22 22 23 23 22 19 14 7 8 13 14 14 16 18 19 21 21 21 20 22 24 25 26 27 25 22 24 29 32 33 35 35 35 34 33 32 32 33 36 39 41 42 43 42 42 42 43 44 43 41 38 37 35 31 26 23 21 19 17 16 15 12 10 9 7 7 8
29 28 26 25 24 22 21 20 20 21 21 19 17 13 6 3 9 14 17 17 18 18 18 18 18 17 18 20 22 23 23 21 19 18 21 24 26 27 29 29 26 24 25 26 28 32 36 37 39 42 43 42 42 44 46 46 43 40 36 34 31 27 22 21 20 19 18 15 12 9 7 5 6 7
28 28 26 25 25 24 22 20 19 19 19 19 19 16 13 10 9 8 11 14 16 17 17 15 14 13 13 14 15 16 16 15 14 14 15 17 19 21 24 25 24 24 24 25 27 31 33 33 35 38 40 41 42 44 44 43 42 39 33 29 27 25 23 23 21 19 15 12 10 7 5 4 5 7
28 27 26 27 28 27 26 26 25 23 21 19 19 18 16 15 13 10 10 11 13 14 15 16 16 14 13 13 13 13 13 13 13 12 12 14 18 20 22 23 26 27 25 23 23 23 23 24 24 26 30 34 37 39 36 33 33 33 31 28 24 22 23 25 23 19 14 11 8 6 3 2 3 4
27 28 29 30 31 32 31 31 30 29 26 22 19 18 16 15 13 12 11 11 13 14 13 14 15 15 15 16 16 16 17 17 16 15 14 17 19 20 21 23 26 28 27 26 25 23 22 21 21 23 26 28 29 30 29 29 30 29 29 28 24 22 24 24 21 16 12 9 7 5 3 2 2 2
31 32 32 32 32 32 32 32 31 31 29 26 23 20 17 15 15 17 18 18 17 15 14 15 15 15 15 16 17 19 21 21 20 18 17 19 21 21 22 25 28 28 28 29 28 27 28 27 26 26 26 25 25 25 26 29 31 30 28 26 23 22 22 20 15 11 9 6 5 4 4 5 6 6
34 35 34 33 32 31 31 30 30 29 29 28 27 24 21 18 16 16 18 19 18 18 17 17 17 17 17 18 19 20 20 21 21 20 20 21 23 25 27 29 29 28 27 27 25 23 24 25 26 27 28 28 29 28 26 27 29 28 26 23 19 17 17 16 12 10 9 7 4 4 5 7 8 8
34 35 34 34 33 32 31 29 29 29 28 28 28 27 26 24 21 18 15 12 12 15 18 20 21 23 23 22 22 22 21 21 21 20 20 21 24 27 28 29 29 28 27 27 25 23 22 23 26 30 32 31 30 29 24 21 21 20 18 18 16 15 14 15 13 11 10 8 6 5 7 9 11 12
32 33 34 33 32 32 31 29 28 28 27 27 26 26 26 26 25 22 18 14 10 11 13 15 17 19 20 20 20 19 17 17 17 17 17 17 17 19 20 22 24 25 25 25 25 23 23 23 24 27 29 28 27 26 23 19 16 14 13 15 17 16 14 15 15 14 11 10 10 9 9 11 13 13
28 30 32 31 31 30 29 28 27 26 26 26 26 26 25 25 24 24 22 20 18 15 13 12 11 11 11 12 12 12 13 14 15 15 15 15 15 16 18 20 21 21 21 21 19 18 17 16 16 16 18 21 24 26 26 23 20 16 12 11 13 15 16 15 15 15 15 14 14 12 11 12 12 12
24 26 28 28 29 29 28 27 25 23 24 25 25 25 25 25 24 24 24 23 22 20 19 18 16 14 12 11 11 13 15 17 18 18 17 16 16 17 18 20 21 21 20 19 18 16 15 14 12 11 12 14 16 18 20 21 20 17 14 11 11 13 15 15 14 16 18 17 15 14 13 12 12 10
21 23 25 26 27 27 27 27 25 22 22 23 23 24 24 24 24 24 24 24 23 22 22 21 19 18 17 15 15 16 17 18 19 19 18 18 17 17 18 18 19 18 18 18 16 15 14 13 12 11 10 12 13 14 16 17 17 17 16 15 13 12 12 13 15 17 19 17 15 14 12 10 9 8
20 22 23 24 25 25 25 26 25 23 21 21 21 22 23 24 24 24 23 23 22 22 22 21 20 19 19 17 16 16 17 18 18 18 17 16 16 15 14 14 15 15 15 16 17 16 16 15 13 12 12 14 16 16 16 18 19 18 18 17 17 15 14 13 14 16 16 15 14 12 11 9 8 7
19 20 20 21 22 23 23 23 23 23 22 21 20 21 22 22 22 23 23 23 22 22 22 21 20 19 19 18 17 17 17 18 17 16 15 15 14 12 11 11 11 12 13 15 15 16 16 16 14 13 13 14 15 16 17 19 20 20 19 18 18 17 15 14 14 14 13 13 12 10 10 10 9 7
18 19 19 19 19 19 20 20 19 20 21 21 20 19 19 19 19 19 21 21 22 22 22 20 19 18 17 17 16 17 17 17 15 14 14 15 15 14 12 11 10 10 11 13 15 16 16 16 15 14 15 15 14 15 18 20 21 20 20 19 18 16 15 14 14 13 12 12 10 7 7 7 7 6
16 18 18 18 17 17 17 17 17 17 18 20 19 18 18 18 18 18 18 18 18 19 20 20 19 17 16 15 14 13 13 13 12 11 12 14 15 14 13 12 11 11 13 15 17 18 17 16 16 16 17 17 16 17 19 21 21 20 20 19 18 17 16 14 14 13 12 11 9 7 6 5 5 5
15 16 16 17 17 16 16 16 16 16 17 19 20 18 17 17 18 18 17 16 16 16 17 18 17 16 16 15 13 12 11 10 9 9 10 11 13 13 12 12 13 14 16 18 19 19 18 16 16 16 16 17 16 16 17 19 19 20 19 18 17 17 16 16 15 14 12 11 10 8 7 6 6 7
Wind_Direction
283 279 273 268 266 265 266 268 266 256 244 238 237 241 242 237 230 227 230 233 233 234 237 236 231 224 220 221 218 215 214 207 205 210 216 224 226 220 220 221 215 210 207 206 208 214 215 214 215 211 202 199 196 193 190 187 186 186 185 184 182 178 177 177 177 175 173 171 171 170 170 171 170 170
282 278 275 270 265 264 265 266 264 254 243 238 238 242 248 242 233 228 231 236 235 235 238 237 231 223 220 219 216 217 217 209 207 214 218 224 228 225 224 222 215 208 206 206 209 213 214 213 212 206 201 199 196 193 192 190 189 189 189 187 185 182 181 181 180 179 178 177 177 178 180 182 182 182
284 276 276 272 263 260 262 262 260 252 244 240 240 242 248 244 235 231 234 237 236 237 240 240 234 226 221 218 215 217 217 211 210 215 219 222 227 231 228 222 216 210 207 208 210 212 214 212 208 204 201 199 196 195 194 192 192 192 192 190 188 187 187 184 183 183 183 183 184 187 190 193 196 197
287 277 274 270 262 257 257 258 255 250 244 242 241 242 247 247 239 233 234 236 238 240 243 244 240 230 223 219 216 217 216 212 211 217 221 222 224 229 227 221 217 213 211 211 211 212 213 211 207 204 202 199 198 198 197 195 194 194 194 192 191 192 192 189 187 186 187 189 193 197 201 203 208 211
292 284 278 270 261 254 254 254 252 249 244 242 243 243 245 246 240 235 236 239 241 242 243 246 244 234 225 219 217 217 215 212 212 216 221 221 222 226 226 219 216 215 215 212 210 212 212 210 208 205 202 201 201 200 199 198 196 195 195 195 194 196 196 194 192 191 193 197 202 206 210 215 219 223
292 286 281 274 266 257 252 249 248 248 246 243 244 244 244 244 242 239 240 240 240 243 243 243 241 234 226 220 217 217 217 215 214 215 217 217 219 224 226 221 216 215 216 213 209 210 211 209 208 206 203 204 204 203 202 202 199 198 198 198 198 199 198 198 197 198 201 205 210 215 220 225 231 235
290 280 276 274 271 265 256 246 242 245 247 244 245 246 245 245 245 244 243 242 241 243 243 241 238 232 226 222 219 218 219 218 216 215 216 215 216 221 224 223 218 215 215 215 211 210 210 210 209 208 206 206 206 205 205 205 203 202 202 202 201 201 201 202 203 205 209 212 217 223 228 235 240 247
296 287 279 277 275 269 262 253 246 246 247 246 246 247 246 246 247 247 247 246 244 243 242 239 236 231 229 225 222 219 219 220 218 216 217 215 214 218 222 222 219 216 215 216 213 211 210 210 210 210 209 209 209 208 207 208 207 207 206 205 204 204 204 206 209 211 215 219 223 229 236 243 249 256
301 297 289 283 277 271 265 259 253 248 247 248 248 247 245 244 245 247 248 247 246 244 242 239 234 232 232 228 223 220 219 219 218 216 217 215 214 218 222 221 217 214 214 216 215 213 211 211 211 212 212 211 211 210 210 210 210 210 210 208 207 207 208 211 214 217 220 224 230 236 243 249 255 262
299 299 294 287 279 275 270 265 262 259 255 255 251 248 246 245 245 247 247 246 246 245 243 239 234 230 230 227 221 218 218 219 217 213 213 213 214 217 220 218 214 211 212 215 216 214 211 211 212 213 213 213 213 212 212 212 212 212 212 211 210 210 212 214 217 220 224 229 235 241 248 254 260 266
295 299 299 294 286 280 274 269 267 265 263 262 256 249 248 249 248 248 248 247 245 243 241 239 235 230 227 225 222 218 218 220 218 213 209 208 211 215 217 216 213 209 210 214 216 215 213 213 214 214 215 215 215 214 214 214 214 214 214 214 213 214 215 217 220 224 228 234 239 245 251 257 263 269
288 294 302 304 299 293 288 282 276 270 266 264 261 253 248 248 248 247 248 248 246 243 239 236 233 229 224 220 220 218 215 216 216 214 210 208 210 213 214 214 214 212 211 213 214 214 214 214 215 215 216 216 216 216 216 216 216 216 216 217 216 217 218 220 223 227 231 237 242 248 254 260 265 271
288 285 299 311 310 303 300 296 290 284 274 267 264 258 250 247 246 243 244 246 244 243 240 234 231 231 227 220 216 215 215 215 216 213 210 210 212 213 213 213 215 215 215 214 213 213 213 214 215 216 216 215 215 216 216 216 216 216 217 219 219 219 221 223 226 229 234 239 244 250 256 262 267 271
306 292 286 295 299 297 299 297 289 285 280 273 267 261 254 248 244 241 242 246 243 241 241 239 234 233 232 227 220 219 219 218 215 212 211 211 211 212 214 214 214 214 215 215 215 214 214 215 216 217 216 215 215 216 215 215 215 215 217 219 220 221 222 224 228 231 236 241 247 254 259 264 269 271
311 300 284 277 277 280 289 291 284 279 277 275 271 263 254 249 247 244 243 245 245 242 243 243 239 234 232 231 226 223 221 219 216 214 214 212 209 210 215 215 214 213 213 214 217 217 216 217 218 218 217 216 216 216 216 215 215 215 216 218 219 221 222 225 228 233 238 244 250 255 260 265 267 268
303 298 287 278 273 270 274 279 279 276 274 272 270 264 255 249 250 250 247 245 244 242 242 243 240 236 233 230 227 224 222 220 218 216 216 214 210 212 217 218 217 216 212 212 217 219 217 217 218 219 218 217 217 218 217 217 216 216 216 218 219 221 223 225 229 234 240 246 250 255 259 262 262 263
298 292 285 279 275 267 264 270 275 276 274 270 266 262 258 251 249 251 250 246 243 243 242 238 237 237 235 231 228 226 224 221 218 216 216 216 215 217 219 219 219 219 214 211 212 215 216 217 219 219 218 218 219 219 219 218 218 218 218 218 219 222 224 227 231 237 241 245 249 254 256 257 258 261
311 300 291 287 284 278 268 266 270 275 275 270 262 259 258 255 250 248 246 242 238 238 238 236 235 235 234 231 229 227 225 223 220 219 218 219 220 221 220 220 221 222 219 212 207 208 210 213 216 218 217 218 219 220 221 221 220 220 220 219 219 221 224 228 231 235 239 243 247 250 251 252 256 260
331 320 310 300 296 294 285 272 269 271 272 270 266 262 259 259 255 248 243 238 234 234 236 238 239 237 233 232 230 228 227 226 226 228 227 224 222 221 219 218 223 226 223 215 208 208 209 210 214 216 215 216 218 219 220 221 221 221 220 219 220 221 223 226 230 234 237 241 243 243 246 250 254 258
350 339 330 318 308 304 297 283 271 268 268 268 268 265 261 260 256 245 239 238 238 238 236 237 239 239 237 235 232 229 227 227 226 228 227 223 219 218 216 216 222 226 224 218 212 212 214 213 215 217 216 217 218 218 219 221 221 221 222 220 219 221 224 226 229 231 233 234 236 238 243 248 252 259
7 1 352 340 325 315 308 296 277 266 265 265 264 265 262 260 254 244 239 241 244 244 241 238 236 236 237 238 235 230 228 228 227 225 222 218 214 216 216 216 219 224 225 221 216 215 219 219 218 219 219 219 220 220 220 222 223 223 223 223 223 224 224 224 224 225 226 228 231 235 240 246 251 258
14 12 9 0 348 335 324 313 294 274 267 263 260 260 261 260 256 246 242 244 245 243 243 242 239 237 236 236 236 232 229 229 230 228 225 220 215 215 217 217 217 220 223 224 220 217 220 222 221 219 219 220 222 223 223 223 225 224 221 220 221 219 217 216 216 217 218 222 225 229 235 242 248 258
10 12 12 10 5 356 344 330 314 295 278 265 257 257 258 259 257 252 249 249 247 245 243 242 241 239 235 235 237 235 231 228 229 230 229 225 219 217 220 220 218 217 219 220 220 219 219 221 222 221 218 217 218 222 224 223 221 217 213 207 202 200 202 204 206 209 212 216 219 222 231 242 254 269
5 7 8 8 8 4 358 346 332 318 300 275 260 256 254 253 253 255 256 254 252 250 247 243 242 239 234 234 236 233 228 227 227 226 225 224 222 220 221 223 223 222 220 218 217 219 219 220 222 222 220 219 217 213 211 209 206 201 196 191 186 184 189 196 199 201 204 208 213 219 229 246 259 268
6 4 4 4 4 3 0 355 346 335 321 295 270 260 252 247 248 252 255 256 255 253 248 243 241 236 231 232 233 228 223 224 225 224 221 220 220 221 222 224 225 224 223 221 219 220 219 219 221 220 218 218 216 206 191 183 183 183 182 184 184 182 185 191 193 193 196 200 207 215 223 238 254 268
7 4 2 360 359 358 358 356 353 345 335 317 289 267 253 245 243 244 249 253 252 249 245 239 234 229 226 227 228 225 221 219 218 219 219 215 213 216 221 224 224 223 223 224 224 224 221 219 220 219 216 211 206 198 187 176 173 174 176 181 187 188 188 191 191 191 195 198 200 205 217 237 263 287
6 4 2 359 355 354 356 357 356 352 346 338 319 293 271 253 243 241 246 248 244 241 239 232 224 220 218 220 221 221 223 219 212 212 215 213 210 212 214 216 219 223 226 227 226 225 224 222 221 221 219 211 198 187 182 176 174 175 176 178 185 188 187 188 189 188 191 196 198 205 223 247 274 294
7 6 4 1 355 352 356 359 0 359 357 354 348 335 303 260 237 232 238 236 229 228 228 224 217 211 211 215 218 220 224 224 217 213 212 211 212 214 213 214 218 222 225 224 221 219 220 222 221 219 219 217 207 193 185 179 176 176 176 175 179 183 183 185 188 186 186 192 199 208 224 245 271 295
9 8 7 6 3 359 357 358 3 10 11 8 3 356 323 226 197 190 201 216 218 215 214 215 216 212 209 211 214 216 218 219 218 214 211 209 211 213 213 213 216 218 219 219 217 213 213 217 220 218 215 217 215 205 193 183 177 176 175 173 174 178 183 187 191 190 188 191 196 204 219 244 274 298
10 11 11 13 16 14 10 6 8 16 21 21 20 19 24 130 155 159 169 185 198 201 200 204 209 209 204 202 204 207 210 211 210 210 209 207 209 212 213 210 207 207 210 212 211 209 208 211 217 215 207 204 205 199 190 182 176 173 175 174 171 173 181 190 191 188 186 188 193 203 222 254 284 307
11 12 15 20 23 25 27 25 23 24 26 30 34 37 46 61 76 97 121 141 158 167 172 179 188 194 193 187 184 187 193 196 195 196 198 198 198 202 209 209 201 197 199 198 198 202 202 201 205 206 200 194 190 185 181 177 172 168 170 174 175 176 179 183 183 182 184 190 195 201 221 265 296 314
12 15 20 25 27 29 31 33 33 33 33 36 42 45 50 60 68 71 78 93 105 116 132 145 152 159 164 161 159 160 162 161 160 165 178 183 180 183 191 189 182 181 180 176 176 183 185 184 186 188 187 185 181 176 172 170 169 168 167 171 177 178 175 176 179 181 185 190 192 191 204 259 309 326
16 18 23 28 29 30 31 32 34 35 34 37 43 49 54 59 68 77 81 81 81 84 97 113 121 128 135 137 140 144 144 142 144 152 162 165 164 171 178 171 163 164 165 161 159 160 161 163 166 165 167 171 172 174 173 169 168 169 167 166 170 171 170 175 182 184 183 184 181 173 166 148 114 118
22 22 26 30 31 32 34 35 36 37 37 37 39 44 53 61 71 80 86 89 93 96 99 103 107 114 120 121 121 124 125 126 131 136 144 150 153 159 161 152 146 149 150 147 147 149 150 152 154 152 154 159 164 171 176 170 162 161 162 164 167 166 166 172 181 181 176 180 182 171 157 144 140 142
27 27 29 32 34 35 37 39 42 42 43 43 42 42 45 52 63 76 84 91 99 105 108 111 113 114 117 117 116 116 117 119 121 124 127 132 134 134 134 133 132 135 137 135 137 142 147 152 153 150 151 155 155 154 159 164 164 163 164 168 173 174 172 173 177 173 165 164 176 185 173 157 149 142
31 32 34 35 36 39 40 43 46 48 48 48 49 49 49 49 50 54 59 71 90 100 103 106 107 107 109 113 114 115 116 115 116 118 122 126 127 124 123 123 123 125 128 129 130 134 139 147 152 151 149 151 148 144 146 160 170 173 174 175 177 180 176 168 162 161 160 155 157 168 164 152 143 135
34 36 36 36 38 41 43 46 49 51 52 53 54 55 55 56 56 55 55 57 69 83 88 93 96 96 98 102 105 107 110 111 113 117 121 127 133 133 129 127 125 126 127 128 130 134 137 142 150 152 149 147 144 142 144 152 161 169 176 175 170 169 171 164 157 156 156 150 146 147 146 140 135 129
35 37 36 37 38 39 41 45 49 51 52 53 55 57 57 59 60 60 61 62 64 67 69 70 72 79 89 98 100 103 109 113 116 118 121 127 135 140 141 140 140 139 139 139 142 146 148 147 152 157 158 154 149 146 146 149 151 156 168 178 174 170 170 169 168 166 160 153 149 145 140 136 133 128
31 33 33 35 36 35 37 39 43 48 51 51 52 54 55 57 58 59 60 62 63 65 68 70 70 74 87 104 114 118 120 119 117 116 117 119 123 128 133 137 139 140 140 140 140 143 145 147 150 156 164 167 165 163 162 161 159 158 160 170 182 179 172 171 174 172 164 157 153 148 142 139 137 132
33 30 29 31 32 32 33 34 35 41 48 49 50 52 53 53 54 55 58 60 62 64 66 69 72 75 80 88 98 104 107 109 111 113 114 114 116 119 122 126 129 130 130 127 127 130 137 145 151 156 164 170 173 176 174 168 162 158 156 159 169 174 171 172 175 171 164 160 157 154 149 146 144 142
37 32 29 30 30 27 28 31 33 38 46 51 53 53 53 53 53 55 57 59 61 63 64 66 69 72 73 77 82 85 88 92 98 105 110 113 115 116 117 120 123 124 121 117 116 118 124 132 142 152 160 164 162 162 164 160 155 153 155 157 160 161 163 167 170 167 162 160 159 157 157 159 164 168
33 31 29 32 32 26 25 31 37 41 46 50 52 49 48 50 53 58 61 61 62 63 63 63 64 64 67 72 76 78 78 78 79 86 96 103 107 108 110 115 120 122 119 116 115 118 124 134 145 150 150 152 153 154 154 153 151 151 154 156 157 159 161 164 165 163 160 161 163 164 167 171 176 181
21 19 21 27 32 31 27 30 38 44 44 44 47 47 46 46 50 55 58 60 62 63 62 61 61 61 63 67 72 75 76 74 72 76 83 88 91 91 92 99 110 119 123 121 120 125 132 139 147 147 141 141 147 149 145 140 138 141 145 149 153 157 159 160 162 163 163 164 168 173 177 179 181 184
14 12 12 16 25 31 31 30 33 37 37 38 43 46 47 48 50 50 51 52 56 59 59 59 60 62 62 63 65 69 71 72 75 79 84 88 89 86 85 92 105 120 131 130 127 130 135 140 143 141 137 136 139 139 137 134 133 134 137 140 145 149 151 153 157 162 164 167 171 175 179 186 191 187
14 11 9 7 10 17 26 31 32 31 31 33 37 42 46 48 49 47 46 46 49 53 55 55 55 57 58 58 59 60 60 65 74 82 88 94 97 93 92 99 110 120 130 132 130 130 134 138 141 142 141 140 137 133 132 135 136 134 133 134 137 142 146 149 151 152 152 152 152 151 150 151 154 152